Presure
201 179 167 183 191 200 205 182 170 173 167 165 171 170 156 155 163 163 161 161 162 155 160 157 155 165 182 185 163 156 157 157 139 143 150 152 163 167 160 164 164 162 159 162 166
193 196 200 200 198 191 184 189 194 194 190 205 206 210 187 179 175 171 172 170 173 163 160 161 166 167 170 167 164 161 154 156 140 148 150 154 116 115 164 140 164 151 153 155 154
201 197 191 189 185 183 179 171 168 167 165 180 179 182 193 198 206 199 185 182 180 179 177 179 174 171 172 174 165 167 168 147 124 150 148 117 74 157 161 161 157 162 144 144 150
182 160 168 169 165 182 159 154 196 190 193 224 237 252 267 273 203 201 199 206 209 197 167 190 190 188 183 177 171 181 163 157 152 151 156 150 157 162 161 151 161 143 151 72 164
161 169 182 179 187 183 185 188 199 216 221 239 270 295 258 270 378 278 427 214 218 216 216 214 181 196 191 190 181 165 174 168 167 161 159 140 156 159 161 160 157 125 154 145 146
179 178 172 183 184 187 192 213 207 233 245 265 278 398 440 418 403 390 383 387 396 340 226 222 220 220 216 189 198 179 124 167 179 174 161 159 159 130 165 167 157 153 164 169 167
178 175 178 163 185 200 208 210 225 240 228 260 404 436 407 390 368 353 354 354 364 372 375 214 226 229 227 225 219 189 189 192 177 161 171 160 165 155 163 168 165 145 151 151 176
182 178 177 195 196 195 200 212 228 230 233 344 441 402 361 341 340 331 374 414 447 348 352 351 365 288 232 231 221 219 217 183 164 182 167 175 162 167 167 162 156 162 155 152 159
179 173 190 179 197 188 200 211 234 236 267 332 405 371 344 335 330 500 512 524 535 505 343 336 344 354 378 289 229 222 215 214 208 199 177 155 166 162 174 172 174 168 169 169 168
181 175 184 179 185 196 206 216 226 224 284 338 405 367 362 356 388 487 469 490 485 520 490 446 326 335 345 366 460 226 230 219 180 207 71 97 164 172 177 161 171 170 168 168 164
172 178 174 183 187 186 207 205 218 252 278 334 402 361 366 390 508 492 489 505 507 498 501 452 430 345 322 340 360 446 337 218 220 200 203 208 196 83 188 191 170 184 178 175 179
170 176 177 182 186 185 202 208 212 234 280 334 396 356 364 410 520 392 465 130 483 282 451 428 426 454 363 315 333 356 421 327 227 200 219 194 200 177 189 192 194 185 168 173 177
174 179 178 169 186 188 193 205 214 225 268 304 392 364 366 392 513 408 437 275 280 426 402 406 413 435 473 478 305 329 453 411 312 239 207 210 201 188 178 195 196 196 192 184 174
168 185 173 165 184 183 187 212 216 219 281 291 347 378 356 381 502 468 403 388 142 388 379 392 272 415 431 462 466 303 321 436 390 304 260 205 195 201 184 175 182 183 183 183 180
167 158 174 165 182 178 190 200 211 222 258 278 297 367 352 370 432 459 418 380 393 396 402 418 445 474 445 458 456 311 288 329 422 374 297 270 211 192 195 182 187 193 189 185 174
167 164 154 178 178 173 190 198 195 216 249 255 277 176 367 365 377 450 443 396 386 360 415 400 401 432 450 425 411 445 279 287 392 413 325 291 265 207 197 186 193 186 191 189 191
171 168 153 181 171 180 189 204 200 237 258 254 269 281 361 364 379 373 453 380 371 379 372 387 396 394 418 440 423 401 336 285 320 380 381 311 289 245 206 191 188 187 198 195 193
175 157 165 184 167 180 180 179 191 230 246 247 248 264 283 376 372 380 451 416 361 366 374 382 372 390 400 417 405 411 278 283 340 369 371 376 296 283 245 206 189 189 189 189 192
172 153 165 173 174 179 181 177 188 204 244 256 241 256 267 282 372 378 381 443 418 350 398 388 404 406 376 384 393 428 292 286 348 339 350 359 368 293 281 240 210 195 189 189 194
167 158 161 174 174 178 179 181 185 204 227 242 251 241 259 268 285 373 392 367 424 403 352 384 393 405 391 389 402 393 277 286 351 341 343 344 343 361 289 269 237 212 200 193 195
146 162 161 163 171 169 174 196 191 212 209 235 239 253 241 257 265 302 376 385 364 416 400 364 392 388 381 413 397 385 288 286 344 388 346 337 351 361 360 285 261 246 212 202 198
160 162 159 160 169 169 176 184 180 194 196 235 239 239 256 240 260 265 280 384 390 356 414 359 380 389 406 391 399 391 279 291 363 424 343 334 330 341 344 366 281 267 249 217 211
157 149 163 157 166 170 181 178 181 187 194 208 227 235 234 249 241 259 259 281 393 378 355 394 357 383 396 385 378 393 279 275 321 379 404 375 341 335 336 358 382 279 270 224 226
159 168 166 161 170 174 180 168 180 194 208 202 212 227 231 231 244 247 252 262 303 400 375 395 394 358 390 388 377 376 382 283 275 303 381 379 359 380 348 344 340 346 275 256 224
164 166 160 174 170 175 180 168 176 194 192 214 203 222 226 227 231 239 248 249 262 274 401 371 416 393 392 377 379 357 367 373 302 267 292 341 408 356 344 345 331 345 324 280 251
169 168 161 160 166 175 184 174 178 192 180 209 206 207 222 226 229 230 240 240 243 260 270 408 364 410 392 398 363 381 351 357 359 270 269 315 369 320 348 340 316 325 330 333 334
162 160 169 161 161 170 155 170 170 183 202 201 212 215 210 218 225 229 230 242 243 245 260 266 406 370 413 392 379 366 357 345 335 298 267 270 359 363 316 315 323 323 299 299 313
Wind_Speed
22 24 27 30 34 37 45 59 64 69 72 75 83 88 87 91 96 97 99 99 99 98 97 94 87 96 102 100 87 78 66 66 70 78 88 98 95 95 83 77 73 73 74 74 71
24 26 28 31 36 40 43 49 56 65 71 74 83 88 98 101 103 103 105 106 107 105 106 105 104 102 104 97 93 84 70 77 84 85 88 97 38 44 86 66 68 69 72 71 69
27 26 26 31 35 39 43 46 52 58 65 72 79 86 95 103 108 112 117 116 115 115 118 118 119 112 111 107 98 94 81 90 66 88 90 63 35 94 85 76 71 76 73 72 70
25 22 28 31 35 46 49 56 62 64 69 82 88 93 97 99 109 114 118 125 127 127 100 127 126 124 121 111 106 110 96 96 96 92 92 93 111 98 93 81 82 69 73 31 71
28 31 41 42 51 53 56 62 73 80 83 89 96 101 100 103 92 91 71 126 129 131 133 135 109 133 125 124 118 86 109 105 105 99 99 85 110 104 98 92 86 58 74 75 72
40 43 37 52 56 62 71 78 76 90 95 102 107 90 65 61 59 62 67 73 75 94 134 136 138 140 137 119 130 112 71 100 112 110 103 104 112 80 102 99 88 77 78 84 82
47 46 52 43 65 72 78 84 89 97 93 108 96 70 64 59 55 55 61 68 73 74 74 131 138 141 138 136 138 112 118 123 111 101 110 110 111 96 106 104 97 79 78 78 91
51 54 58 68 71 78 83 91 98 101 104 106 74 68 64 62 61 59 56 53 47 73 74 80 79 122 143 139 135 134 135 108 98 118 106 114 99 119 112 104 94 97 86 85 86
54 55 65 65 81 83 92 97 106 110 110 108 71 64 61 61 60 36 36 31 22 35 73 81 78 78 85 127 142 136 133 134 129 124 115 89 111 117 120 118 114 106 103 99 97
59 59 67 73 82 92 97 104 111 111 107 107 68 60 61 62 54 39 34 36 26 20 32 40 75 75 79 87 76 138 136 135 109 128 24 40 102 125 126 98 111 108 105 102 98
59 64 69 80 88 93 102 107 115 112 108 109 81 74 70 66 41 35 32 23 26 19 15 27 39 69 79 84 89 81 123 130 133 126 124 119 120 30 129 124 114 114 111 107 102
62 70 76 85 92 95 103 109 113 115 110 110 85 79 77 70 37 26 26 27 16 13 5 20 29 31 67 76 82 92 92 120 130 123 131 120 119 122 130 123 121 118 108 106 104
66 76 81 79 94 98 106 108 112 118 109 117 94 84 82 80 45 27 28 26 9 11 5 10 17 23 25 35 77 84 75 92 117 136 123 129 129 122 122 124 120 115 112 111 107
66 75 81 77 96 101 108 109 115 121 109 118 113 91 85 81 40 36 30 26 16 14 6 8 18 16 21 28 40 74 75 72 96 120 130 132 122 127 120 121 118 113 106 105 103
70 62 84 78 96 101 108 113 119 120 107 124 129 104 97 89 65 38 29 30 24 18 11 16 15 3 15 21 28 67 72 76 72 103 122 126 135 118 131 132 124 121 113 108 103
70 75 65 93 97 99 108 113 119 115 104 111 128 53 93 90 81 37 26 33 29 22 23 17 11 9 4 23 29 25 75 74 63 66 115 122 130 131 133 129 130 123 117 112 111
71 77 59 92 94 102 108 112 113 110 107 115 128 129 101 92 83 76 26 35 32 27 22 17 18 9 6 21 27 44 65 72 69 65 77 121 125 134 136 126 127 121 125 118 116
73 64 76 92 86 101 104 113 109 106 104 105 116 130 133 93 89 81 33 30 42 34 25 16 11 8 10 15 22 34 66 66 63 65 69 81 125 125 131 133 130 129 125 118 118
73 60 82 94 96 100 109 107 109 112 104 113 103 124 133 137 93 86 75 27 24 42 21 20 15 11 10 11 22 17 58 58 66 66 64 75 81 124 118 129 134 134 128 121 121
73 68 77 90 94 99 104 104 108 109 109 108 115 106 132 134 135 88 79 72 31 29 39 25 18 11 9 9 17 24 51 51 63 67 74 77 80 80 120 119 129 137 137 133 124
51 75 78 78 92 96 99 102 108 107 113 107 108 121 109 133 137 128 85 75 70 29 26 34 21 15 8 5 14 22 45 45 49 69 64 65 68 70 84 120 119 126 139 138 132
66 76 72 78 91 92 98 104 109 111 114 107 108 110 124 108 132 134 140 80 68 64 21 36 25 17 15 15 8 24 37 37 41 29 63 70 64 66 70 70 120 122 122 139 139
65 60 78 72 87 91 99 103 107 107 110 109 107 109 111 125 113 129 129 138 72 63 61 28 34 19 11 12 9 15 33 33 38 31 37 58 66 66 65 58 50 122 123 137 139
64 72 77 73 89 92 95 92 103 102 101 107 105 107 110 111 125 122 127 134 120 64 58 32 20 31 12 9 11 18 17 34 30 30 22 36 48 53 59 58 58 56 122 124 136
66 69 74 82 88 92 95 91 102 100 105 98 107 102 105 105 109 119 123 123 134 132 58 53 15 17 14 7 12 10 18 25 30 26 28 29 25 47 47 53 60 58 73 117 121
66 70 72 76 84 91 93 95 101 99 103 98 102 104 99 107 107 108 121 113 112 133 130 50 49 13 15 7 3 15 18 20 22 26 29 31 24 37 43 43 54 53 54 60 77
64 66 74 76 78 88 71 92 94 101 94 97 96 98 100 98 107 109 108 122 116 112 131 130 44 43 12 10 5 8 21 22 25 28 28 29 22 30 41 42 50 57 68 78 77
Wind_Direction
295 281 274 266 265 264 261 258 257 258 259 260 259 257 257 257 253 252 253 253 254 258 257 257 255 253 248 245 248 248 248 244 244 245 241 246 245 245 245 242 241 243 246 248 249
303 297 292 288 283 278 271 267 265 264 264 264 262 260 258 257 256 255 254 253 251 252 253 254 254 252 251 250 249 247 241 242 241 242 244 248 221 229 249 244 243 243 248 250 249
304 305 303 294 289 289 290 285 276 271 266 272 268 265 262 258 255 254 253 252 251 250 249 248 248 249 250 249 248 247 242 240 240 243 246 243 223 251 249 248 244 243 243 245 245
328 308 308 301 291 309 275 271 299 291 284 292 288 284 280 277 257 253 251 249 248 247 255 248 247 246 245 247 245 244 241 240 240 242 244 248 252 252 251 247 246 240 247 249 253
310 313 331 326 323 318 314 312 310 308 305 304 305 304 289 287 288 271 280 249 247 245 245 245 255 246 244 242 243 245 242 240 240 240 241 244 250 250 250 249 249 240 245 246 248
337 334 325 334 325 325 320 318 316 317 317 318 316 310 316 306 296 285 277 273 267 255 246 245 244 244 244 246 243 242 240 240 238 237 239 241 246 250 250 251 248 246 246 251 252
340 338 339 316 331 326 326 327 326 328 325 327 330 327 321 313 300 287 279 271 267 262 256 251 246 244 243 241 241 246 240 237 237 237 237 241 243 249 250 249 249 243 243 243 253
341 343 340 334 335 338 335 335 335 335 336 337 337 334 326 315 305 296 289 280 267 259 256 251 244 239 243 241 240 239 239 246 237 236 237 237 242 245 247 248 247 247 244 244 247
347 344 338 342 343 344 342 339 339 340 335 345 344 336 326 317 310 314 306 303 282 267 247 251 246 238 232 237 240 238 238 238 236 236 237 236 236 245 242 245 246 247 248 247 248
345 347 347 350 349 346 344 345 343 345 354 352 348 344 337 332 326 332 318 307 293 270 257 239 244 239 233 228 220 239 236 236 238 236 234 242 235 240 241 248 244 244 245 246 246
351 350 357 352 352 350 349 349 347 345 356 358 358 354 352 349 350 341 332 321 304 304 254 249 232 234 231 228 224 219 224 235 233 238 237 234 233 231 240 239 243 243 244 245 245
353 355 356 356 353 351 353 350 349 351 4 4 2 359 357 360 6 339 349 284 352 289 246 238 235 232 231 228 225 224 220 223 231 235 233 238 234 235 239 238 238 238 242 242 242
357 355 358 360 353 354 357 352 352 354 6 10 5 5 4 4 7 12 14 316 305 15 287 258 250 241 229 219 225 224 218 219 222 229 234 232 233 235 240 240 240 239 237 239 243
3 357 0 2 355 359 359 353 357 355 14 15 10 7 10 9 9 17 11 10 281 7 314 294 251 245 229 220 218 222 223 215 217 221 224 230 234 233 237 243 241 240 240 242 243
4 0 359 3 358 4 357 356 1 354 5 20 18 9 9 10 13 15 15 9 16 11 25 38 22 320 209 209 219 217 218 220 214 217 221 219 228 231 232 238 239 240 241 240 241
4 2 359 358 2 5 357 358 3 354 5 16 23 19 12 12 15 16 21 13 16 11 42 40 39 27 201 185 198 214 216 218 208 212 219 221 219 227 231 235 236 238 239 238 239
1 3 359 358 6 2 359 3 358 357 16 19 26 26 14 15 16 20 32 14 14 19 19 29 35 48 77 181 188 196 205 217 215 202 213 218 221 218 227 230 236 240 239 240 238
359 6 5 1 8 2 3 8 357 5 13 19 22 26 26 17 19 20 25 18 20 17 23 31 33 47 73 172 186 193 214 217 211 209 212 217 219 220 219 225 231 235 238 238 240
1 5 6 2 2 360 4 2 0 3 15 26 20 29 29 27 18 21 22 28 32 24 26 27 48 90 135 162 185 184 210 218 201 208 208 213 214 220 218 218 225 232 236 238 238
2 4 7 1 3 2 3 1 3 5 8 19 26 21 32 31 29 20 22 22 27 24 25 27 35 70 178 190 178 179 213 217 206 211 215 216 218 217 219 218 216 224 232 236 237
0 3 5 6 3 7 2 359 1 5 6 16 22 29 25 32 31 28 22 22 22 26 27 26 35 41 49 159 182 181 209 218 208 213 208 216 221 220 220 218 216 215 224 230 234
2 2 5 7 3 4 3 3 5 4 6 16 21 24 31 27 32 33 30 21 23 22 29 26 24 36 67 87 90 177 213 215 204 205 212 215 219 218 220 220 219 221 216 224 229
4 5 2 6 4 3 0 5 5 4 7 7 16 21 23 30 30 33 32 30 21 22 21 25 27 31 74 110 143 173 211 218 210 207 216 214 218 222 223 224 217 218 220 220 223
2 360 1 3 1 1 1 9 6 6 7 7 12 19 23 25 30 32 35 33 29 21 22 25 25 31 45 113 142 149 161 217 221 211 208 218 216 209 211 215 216 212 219 218 221
359 0 3 0 1 360 1 8 6 3 6 10 9 18 22 23 27 29 31 33 32 31 22 22 33 19 20 71 152 179 175 184 214 211 212 216 196 217 216 213 215 221 222 219 219
360 360 1 3 2 360 1 4 4 1 6 9 8 10 19 24 26 29 30 30 31 32 31 23 22 31 14 19 103 188 196 185 191 208 217 213 187 208 210 209 206 203 205 214 220
359 1 360 2 3 359 8 3 7 2 6 7 11 13 11 16 24 26 27 28 30 30 32 31 23 20 24 14 55 186 195 207 215 217 211 217 194 194 194 200 197 196 213 220 220